Starlink 34550

operational
NORAD ID: 64683 Int'l Des: 2025-139 Owner: SPXS Country: US Constellation: starlink
LEOCIRCULAR

About Starlink 34550

Description loading...

Live Position

Loading 3D Globe...

Upcoming Passes

Altitude History

Altitude vs Time

uPlot chart will show altitude changes over time

Two-Line Element Set

1 64683U 25139V 26063.46145631 .00007000 00000-0 24824-3 0 9994
2 64683 53.1581 151.3207 0000898 56.4121 303.6965 15.30197605 39488
Epoch: Mar 4, 2026 • Age: 19 hours

Current Status

Altitude 476.2 km
Velocity 7.63 km/s
Sub-Earth Point -2.68°S, 61.79°E
Launch Date Jun 28, 2025
Age 0.6 years
Type internet

Technical Details

Classification Payload
Mass 575.00 kg
Dry Mass 530.00 kg
Total Mass 575.00 kg
Length 0.30 m
Diameter 4.10 m
Span 29.00 m
Shape Box + pan
Manufacturer SPXS
Bus Type Starlink V2MO
Phase Status In Orbit
Owner/State SPXS/US

Large Constellations

Loading constellations...